Flag for Germany Weather past 2 weeks in Schwäbisch Gmünd, Baden-Württemberg, Germany

Now
62 °F

Clear.


Feels Like: 62 °F
Forecast: 53 / 79 °F
Wind: 2 mph from Southeast

Location: Stoetten

Current Time: Jul 31, 2014 at 10:50:31 PM

Latest Report: Jul 31, 2014 at 10:00 PM


Visibility: 17 mi

Pressure: 29.95 "Hg

Humidity: 81%

Dew point: 56 °F

Location of Schwäbisch GmündLocation

Historic Weather in Schwäbisch Gmünd — Graph

°F

Schwäbisch Gmünd temperature yesterday

Maximum temperature yesterday: 65 °F (at 5:00 PM)
Minimum temperature yesterday: 58 °F (at 7:00 AM)
Average temperature yesterday: 60 °F

Past Weeks' High & Low Weather Summary

 TemperatureHumidityPressure
High85 °F (Jul 19, 5:00 PM)100% (Jul 21, 12:00 AM)30.17 "Hg (Jul 21, 12:00 AM)
Low57 °F (Jul 29, 4:00 AM)31% (Jul 18, 4:00 PM)29.72 "Hg (Jul 28, 6:00 PM)
Average65 °F75%29.91 "Hg
* Reported Jul 16 10:00 PM — Jul 31 10:00 PM, Schwäbisch Gmünd, Weather by CustomWeather, © 2014

Note: Actual official high and low records may vary slightly from our data, if they occured in-between our weather recording intervals... More about our weather records

Advertising

Schwäbisch Gmünd weather history for previous 24 hours

 ConditionsComfort  
Time TempWeatherWind HumidityBarometerVisibility
10:00 PM
Jul 31
62 °FClear.2 mph81%29.95 "Hg17 mi
9:00 PM64 °FClear.2 mph77%29.93 "Hg19 mi
8:00 PM67 °FPartly sunny.2 mph69%29.92 "Hg25 mi
7:00 PM70 °FPassing clouds.1 mph62%29.91 "Hg34 mi
6:00 PM69 °FScattered clouds.1 mph61%29.93 "Hg34 mi
5:00 PM67 °FPartly sunny.2 mph68%29.94 "Hg40 mi
4:00 PM67 °FPartly sunny.3 mph62%29.94 "Hg40 mi
3:00 PM68 °FPartly sunny.2 mph67%29.95 "Hg34 mi
2:00 PM67 °FOvercast.2 mph60%29.96 "Hg31 mi
1:00 PM68 °FPartly sunny.N/A66%29.96 "Hg28 mi
12:00 PM67 °FPartly sunny.2 mph74%29.96 "Hg19 mi
11:00 AM63 °FPartly sunny.2 mph85%29.99 "Hg16 mi
10:00 AM62 °FPartly sunny.N/A87%29.98 "Hg5 mi
9:00 AM59 °FFog.3 mph96%29.99 "Hg2 mi
8:00 AM59 °FFog.3 mph97%29.99 "Hg2 mi
7:00 AM58 °FFog.3 mph98%29.98 "Hg2 mi
6:00 AM58 °FFog.5 mph99%29.97 "Hg1 mi
5:00 AM58 °FLow clouds.5 mph100%29.96 "Hg0 mi
4:00 AM58 °FFog.5 mph99%29.96 "Hg1 mi
3:00 AM58 °FLow clouds.6 mph99%29.94 "Hg1 mi
2:00 AM59 °FFog.5 mph98%29.95 "Hg2 mi
1:00 AM59 °FFog.5 mph98%29.94 "Hg2 mi
12:00 AM59 °FFog.8 mph98%29.93 "Hg2 mi
11:00 PM
Jul 30
59 °FLow clouds.9 mph99%29.92 "Hg2 mi
10:00 PM60 °FLow clouds.7 mph100%29.89 "Hg1 mi
Weather by CustomWeather, © 2014

See weather overviewHow to use our weather pages